Lid_Strength_Index
4 4 4 4 4 3 3 2 2 3 4 3 3 2 2 1 0 3 6 4 5 7 6 5 4 6 7 8 10 8 8 8 10 12 13 14 14 13 13 12 13 14 15 15 13 15 18 7 7 11 10 9 9 9
4 4 4 4 4 3 3 2 2 3 4 4 2 2 3 1 0 2 4 2 2 6 6 4 4 3 4 6 8 8 8 9 9 11 11 11 13 12 13 15 10 14 11 13 13 13 9 7 8 8 8 9 9 9
4 4 3 3 4 3 3 2 1 3 3 3 3 4 3 1 0 3 5 4 4 6 6 7 7 5 4 4 5 8 8 7 8 8 9 10 12 11 15 13 13 10 9 11 11 9 9 7 7 6 7 8 8 8
4 4 3 3 3 3 3 2 1 3 3 3 3 4 4 2 1 1 5 4 4 5 8 7 4 4 3 3 4 4 5 5 6 7 10 10 11 9 12 11 11 9 9 10 11 9 8 7 7 6 6 6 7 7
3 4 3 3 3 3 3 2 1 3 3 3 4 4 4 2 2 3 5 4 3 5 8 7 5 5 5 4 4 4 5 7 7 9 10 11 9 9 10 10 11 9 10 11 12 9 9 8 7 5 6 7 7 7
3 4 4 3 3 3 3 2 2 3 4 4 4 4 4 2 2 4 5 3 4 4 7 9 5 6 4 4 4 5 5 6 7 8 9 8 8 9 13 15 9 8 6 7 8 6 6 5 6 5 6 5 5 6
4 4 4 3 3 3 3 2 2 4 4 4 4 5 3 2 5 5 6 4 5 4 6 9 8 5 4 5 5 5 6 6 7 8 9 9 9 8 11 13 9 7 6 6 6 6 7 6 7 5 5 4 4 4
4 4 4 4 3 3 2 2 4 4 4 4 5 5 2 3 4 4 3 4 3 4 5 9 9 8 6 6 8 6 7 7 7 8 8 10 8 9 12 9 8 7 6 6 6 6 6 5 5 4 5 4 5 6
4 4 4 4 3 3 2 3 4 4 5 5 5 4 4 4 5 4 1 1 4 4 9 8 10 12 5 7 7 7 6 10 7 9 10 9 12 13 11 9 8 7 8 7 6 6 5 6 6 5 4 4 5 5
4 4 4 3 3 2 3 4 4 4 5 5 6 4 6 4 1 1 3 5 5 6 6 9 7 10 7 8 8 8 8 10 12 10 8 11 12 10 9 8 7 6 6 6 8 8 7 7 5 5 6 4 4 4
4 4 4 4 3 3 4 4 4 5 5 7 5 5 3 1 4 5 8 9 8 10 8 7 8 8 6 9 10 8 10 10 14 11 11 13 12 8 6 7 6 5 5 5 5 5 5 5 5 5 4 4 3 3
4 4 4 4 4 5 5 5 5 6 7 8 7 6 4 4 7 10 10 9 9 10 8 8 7 7 7 7 8 9 10 10 14 8 11 14 10 7 6 5 5 5 5 4 4 4 4 4 4 5 5 4 3 3
3 4 4 4 5 5 5 5 5 6 6 6 6 6 7 7 12 12 13 12 11 8 8 7 8 7 7 7 9 9 11 12 8 12 13 11 9 6 6 6 5 4 4 4 4 4 4 4 4 4 4 4 4 3
4 4 4 4 4 4 5 5 5 6 7 7 7 12 10 11 10 10 10 9 7 7 7 8 7 8 8 9 9 11 10 9 13 15 13 10 7 6 6 5 5 5 4 4 4 4 4 4 4 3 3 3 4 4
4 4 4 5 5 4 4 4 5 7 7 7 7 11 10 8 7 6 6 6 5 6 7 7 8 8 10 9 10 10 11 13 12 13 10 8 7 6 7 6 6 6 6 6 5 5 5 5 5 5 4 4 4 4
3 4 4 3 3 4 4 5 6 6 6 6 7 9 7 8 8 7 7 7 5 5 6 7 9 10 10 10 11 11 11 13 11 10 8 6 7 7 7 6 5 6 6 6 6 6 5 5 5 5 4 4 4 4
4 3 3 3 3 3 4 6 6 6 6 7 8 6 6 7 8 7 7 7 4 6 9 8 10 11 8 11 11 9 11 10 8 7 6 7 7 7 6 5 6 6 6 6 6 6 6 5 5 5 6 5 4 4
5 4 3 4 4 3 4 5 5 6 8 7 8 7 6 6 7 6 6 5 6 7 7 9 7 10 11 12 11 9 8 8 7 6 6 6 6 6 5 6 6 6 6 6 6 6 6 6 6 6 6 5 4 4
4 4 3 4 5 5 4 4 5 8 7 6 6 6 5 5 5 5 5 5 5 4 6 8 10 10 9 9 8 8 7 7 7 7 6 6 6 6 6 6 6 6 6 6 6 6 6 6 6 5 5 5 6 3
3 3 4 3 4 6 6 6 3 6 8 7 6 6 6 6 5 5 5 5 6 6 8 9 9 8 7 7 6 7 7 5 5 6 6 6 5 6 6 7 7 6 6 6 6 5 6 6 5 5 5 5 4 3
2 4 4 4 6 5 6 6 6 6 6 7 6 6 7 6 7 7 7 5 7 8 9 7 6 5 5 5 5 7 6 4 5 5 5 6 6 6 6 7 6 6 6 7 7 6 5 5 5 4 5 5 5 4
4 3 4 4 4 4 5 4 6 5 6 6 6 6 8 8 8 7 6 8 8 7 6 6 6 5 5 6 6 5 5 6 6 5 7 6 7 7 7 7 7 7 7 7 6 5 5 4 4 4 4 4 4 4
4 4 4 3 6 8 9 4 7 7 9 8 7 8 8 8 8 5 9 7 7 5 5 5 4 4 4 4 4 5 6 6 7 7 8 8 8 7 6 7 6 7 7 7 6 5 5 4 3 3 3 4 4 4
3 4 6 7 7 10 6 8 6 7 7 9 9 10 9 9 7 8 10 9 6 5 5 5 4 5 5 5 6 5 5 6 7 8 8 8 8 8 7 6 6 6 5 6 5 4 5 3 4 4 3 4 4 4
7 9 8 12 7 8 9 9 8 9 10 9 9 10 9 7 10 10 10 8 7 6 6 5 5 5 5 5 5 4 5 7 8 9 9 8 8 8 7 8 8 6 5 6 6 6 5 4 4 3 4 4 3 3
11 7 10 8 8 9 8 9 9 9 9 9 10 8 8 9 11 11 9 7 6 6 5 5 5 5 5 4 5 5 6 5 7 8 9 8 8 8 8 8 9 8 6 6 5 5 5 5 5 4 5 5 4 3
10 9 7 5 6 7 8 7 7 8 9 9 9 9 10 12 11 9 6 5 5 5 4 3 4 5 7 8 7 6 5 5 6 7 7 8 7 7 7 7 8 7 6 5 5 5 5 5 5 4 4 4 4 3
7 7 9 7 7 6 8 8 8 9 8 7 8 10 11 10 10 7 5 4 6 7 7 6 4 6 6 6 5 5 5 6 7 7 7 7 7 6 6 6 6 7 5 5 5 4 4 4 5 5 4 5 4 4
8 6 7 8 8 7 7 8 8 7 6 7 8 9 8 6 5 5 4 5 6 6 7 8 7 5 5 5 5 5 7 7 8 9 9 9 9 9 8 7 6 7 6 6 6 5 5 5 5 5 4 4 4 4
7 5 8 8 8 9 7 6 6 5 5 5 5 6 6 5 4 3 5 6 7 6 6 6 6 5 6 8 9 9 8 7 7 7 9 9 8 7 8 6 6 7 7 6 7 7 6 6 6 6 5 5 5 5
5 6 7 7 8 6 5 4 4 4 5 5 5 6 7 6 5 5 5 6 6 6 6 6 6 6 7 9 9 9 9 7 7 6 6 6 5 5 6 6 5 6 6 6 7 7 7 6 6 5 4 4 5 5
6 7 8 9 8 5 5 6 6 6 6 6 7 6 6 7 8 6 5 6 6 7 7 6 6 7 7 6 6 7 7 6 6 6 6 6 6 5 5 5 5 5 6 6 6 6 6 5 5 5 5 4 4 4
7 6 7 7 8 7 7 7 7 8 7 8 7 7 6 7 8 6 4 4 6 6 5 4 6 5 6 6 6 6 6 5 6 8 8 7 7 6 6 6 5 5 5 5 5 5 4 4 4 4 4 4 4 4